Year,Month,Day,Hour,Minute,Value (Times are PST for windspeed in km/hr)
2014,09,02,00,00,0.30
2014,09,02,00,01,1.10
2014,09,02,00,02,1.50
2014,09,02,00,03,0.20
2014,09,02,00,04,0.00
2014,09,02,00,05,0.00
2014,09,02,00,06,0.10
2014,09,02,00,07,0.40
2014,09,02,00,08,0.00
2014,09,02,00,09,0.00
2014,09,02,00,10,0.60
2014,09,02,00,11,0.10
2014,09,02,00,12,0.10
2014,09,02,00,13,0.40
2014,09,02,00,14,0.80
2014,09,02,00,15,0.80
2014,09,02,00,16,1.30
2014,09,02,00,17,1.30
2014,09,02,00,18,1.70
2014,09,02,00,19,2.00
2014,09,02,00,20,1.10
2014,09,02,00,21,1.10
2014,09,02,00,22,2.10
2014,09,02,00,23,2.60
2014,09,02,00,24,2.30
2014,09,02,00,25,3.10
2014,09,02,00,26,2.60
2014,09,02,00,27,1.30
2014,09,02,00,28,1.20
2014,09,02,00,29,0.30
2014,09,02,00,30,0.20
2014,09,02,00,31,0.70
2014,09,02,00,32,0.70
2014,09,02,00,33,0.30
2014,09,02,00,34,0.40
2014,09,02,00,35,1.40
2014,09,02,00,36,1.40
2014,09,02,00,37,1.90
2014,09,02,00,38,1.40
2014,09,02,00,39,0.20
2014,09,02,00,40,0.10
2014,09,02,00,41,0.00
2014,09,02,00,42,0.00
2014,09,02,00,43,0.00
2014,09,02,00,44,0.10
2014,09,02,00,45,0.50
2014,09,02,00,46,0.40
2014,09,02,00,47,0.10
2014,09,02,00,48,0.00
2014,09,02,00,49,0.10
2014,09,02,00,50,0.10
2014,09,02,00,51,0.10
2014,09,02,00,52,0.00
2014,09,02,00,53,0.00
2014,09,02,00,54,0.10
2014,09,02,00,55,0.10
2014,09,02,00,56,1.10
2014,09,02,00,57,2.90
2014,09,02,00,58,3.40
2014,09,02,00,59,3.00
2014,09,02,01,00,3.30
2014,09,02,01,01,3.40
2014,09,02,01,02,3.40
2014,09,02,01,03,2.40
2014,09,02,01,04,1.90
2014,09,02,01,05,1.60
2014,09,02,01,06,1.20
2014,09,02,01,07,0.00
2014,09,02,01,08,1.00
2014,09,02,01,09,1.10
2014,09,02,01,10,0.80
2014,09,02,01,11,0.40
2014,09,02,01,12,1.00
2014,09,02,01,13,1.60
2014,09,02,01,14,1.50
2014,09,02,01,15,1.40
2014,09,02,01,16,1.30
2014,09,02,01,17,1.50
2014,09,02,01,18,1.00
2014,09,02,01,19,0.40
2014,09,02,01,20,0.10
2014,09,02,01,21,0.60
2014,09,02,01,22,1.10
2014,09,02,01,23,1.30
2014,09,02,01,24,1.70
2014,09,02,01,25,1.90
2014,09,02,01,26,2.10
2014,09,02,01,27,1.70
2014,09,02,01,28,2.30
2014,09,02,01,29,3.10
2014,09,02,01,30,2.60
2014,09,02,01,31,2.10
2014,09,02,01,32,1.70
2014,09,02,01,33,1.40
2014,09,02,01,34,2.20
2014,09,02,01,35,1.50
2014,09,02,01,36,0.80
2014,09,02,01,37,0.50
2014,09,02,01,38,1.00
2014,09,02,01,39,0.70
2014,09,02,01,40,1.60
2014,09,02,01,41,1.30
2014,09,02,01,42,1.00
2014,09,02,01,43,0.90
2014,09,02,01,44,1.70
2014,09,02,01,45,1.80
2014,09,02,01,46,2.10
2014,09,02,01,47,1.10
2014,09,02,01,48,0.80
2014,09,02,01,49,0.20
2014,09,02,01,50,0.40
2014,09,02,01,51,0.10
2014,09,02,01,52,0.20
2014,09,02,01,53,1.10
2014,09,02,01,54,1.60
2014,09,02,01,55,1.60
2014,09,02,01,56,1.30
2014,09,02,01,57,1.00
2014,09,02,01,58,1.60
2014,09,02,01,59,1.70
2014,09,02,02,00,3.40
2014,09,02,02,01,3.70
2014,09,02,02,02,2.90
2014,09,02,02,03,2.70
2014,09,02,02,04,2.70
2014,09,02,02,05,2.30
2014,09,02,02,06,1.40
2014,09,02,02,07,0.10
2014,09,02,02,08,0.00
2014,09,02,02,09,0.10
2014,09,02,02,10,1.50
2014,09,02,02,11,1.30
2014,09,02,02,12,1.60
2014,09,02,02,13,1.70
2014,09,02,02,14,1.90
2014,09,02,02,15,1.90
2014,09,02,02,16,2.60
2014,09,02,02,17,2.90
2014,09,02,02,18,3.60
2014,09,02,02,19,2.80
2014,09,02,02,20,1.40
2014,09,02,02,21,2.00
2014,09,02,02,22,1.70
2014,09,02,02,23,2.30
2014,09,02,02,24,2.30
2014,09,02,02,25,2.00
2014,09,02,02,26,1.70
2014,09,02,02,27,2.00
2014,09,02,02,28,1.20
2014,09,02,02,29,0.20
2014,09,02,02,30,0.00
2014,09,02,02,31,0.00
2014,09,02,02,32,0.00
2014,09,02,02,33,0.00
2014,09,02,02,34,0.00
2014,09,02,02,35,0.00
2014,09,02,02,36,0.20
2014,09,02,02,37,0.00
2014,09,02,02,38,0.40
2014,09,02,02,39,0.90
2014,09,02,02,40,0.60
2014,09,02,02,41,0.00
2014,09,02,02,42,0.00
2014,09,02,02,43,0.00
2014,09,02,02,44,0.00
2014,09,02,02,45,0.50
2014,09,02,02,46,0.70
2014,09,02,02,47,0.80
2014,09,02,02,48,0.50
2014,09,02,02,49,0.50
2014,09,02,02,50,1.20
2014,09,02,02,51,1.60
2014,09,02,02,52,1.00
2014,09,02,02,53,1.70
2014,09,02,02,54,1.90
2014,09,02,02,55,2.10
2014,09,02,02,56,1.40
2014,09,02,02,57,0.80
2014,09,02,02,58,0.40
2014,09,02,02,59,0.20
2014,09,02,03,00,1.20
2014,09,02,03,01,2.00
2014,09,02,03,02,2.00
2014,09,02,03,03,1.90
2014,09,02,03,04,1.50
2014,09,02,03,05,2.00
2014,09,02,03,06,2.60
2014,09,02,03,07,2.70
2014,09,02,03,08,2.50
2014,09,02,03,09,2.70
2014,09,02,03,10,2.10
2014,09,02,03,11,2.00
2014,09,02,03,12,1.10
2014,09,02,03,13,1.50
2014,09,02,03,14,2.10
2014,09,02,03,15,1.50
2014,09,02,03,16,1.50
2014,09,02,03,17,0.20
2014,09,02,03,18,1.10
2014,09,02,03,19,0.70
2014,09,02,03,20,1.20
2014,09,02,03,21,0.70
2014,09,02,03,22,0.00
2014,09,02,03,23,0.20
2014,09,02,03,24,0.20
2014,09,02,03,25,0.00
2014,09,02,03,26,0.00
2014,09,02,03,27,0.00
2014,09,02,03,28,0.00
2014,09,02,03,29,0.30
2014,09,02,03,30,0.30
2014,09,02,03,31,1.10
2014,09,02,03,32,1.30
2014,09,02,03,33,1.30
2014,09,02,03,34,1.40
2014,09,02,03,35,1.40
2014,09,02,03,36,1.20
2014,09,02,03,37,0.70
2014,09,02,03,38,0.70
2014,09,02,03,39,1.00
2014,09,02,03,40,1.40
2014,09,02,03,41,1.00
2014,09,02,03,42,0.40
2014,09,02,03,43,0.10
2014,09,02,03,44,0.00
2014,09,02,03,45,0.00
2014,09,02,03,46,0.10
2014,09,02,03,47,0.40
2014,09,02,03,48,0.80
2014,09,02,03,49,1.00
2014,09,02,03,50,1.70
2014,09,02,03,51,1.90
2014,09,02,03,52,2.20
2014,09,02,03,53,2.70
2014,09,02,03,54,3.10
2014,09,02,03,55,2.80
2014,09,02,03,56,2.40
2014,09,02,03,57,1.80
2014,09,02,03,58,1.10
2014,09,02,03,59,0.60
2014,09,02,04,00,1.40
2014,09,02,04,01,1.30
2014,09,02,04,02,2.00
2014,09,02,04,03,2.70
2014,09,02,04,04,2.10
2014,09,02,04,05,2.00
2014,09,02,04,06,1.80
2014,09,02,04,07,1.30
2014,09,02,04,08,0.80
2014,09,02,04,09,0.80
2014,09,02,04,10,1.30
2014,09,02,04,11,1.60
2014,09,02,04,12,1.00
2014,09,02,04,13,1.90
2014,09,02,04,14,2.40
2014,09,02,04,15,2.40
2014,09,02,04,16,2.60
2014,09,02,04,17,1.40
2014,09,02,04,18,0.40
2014,09,02,04,19,0.30
2014,09,02,04,20,0.20
2014,09,02,04,21,0.00
2014,09,02,04,22,0.10
2014,09,02,04,23,0.60
2014,09,02,04,24,1.30
2014,09,02,04,25,2.20
2014,09,02,04,26,2.40
2014,09,02,04,27,2.40
2014,09,02,04,28,1.90
2014,09,02,04,29,1.80
2014,09,02,04,30,1.70
2014,09,02,04,31,2.20
2014,09,02,04,32,1.90
2014,09,02,04,33,1.90
2014,09,02,04,34,1.40
2014,09,02,04,35,1.90
2014,09,02,04,36,0.70
2014,09,02,04,37,0.80
2014,09,02,04,38,1.00
2014,09,02,04,39,0.70
2014,09,02,04,40,0.70
2014,09,02,04,41,0.10
2014,09,02,04,42,0.00
2014,09,02,04,43,0.00
2014,09,02,04,44,0.00
2014,09,02,04,45,0.00
2014,09,02,04,46,0.00
2014,09,02,04,47,0.00
2014,09,02,04,48,0.00
2014,09,02,04,49,0.30
2014,09,02,04,50,0.50
2014,09,02,04,51,0.20
2014,09,02,04,52,0.00
2014,09,02,04,53,0.10
2014,09,02,04,54,0.00
2014,09,02,04,55,0.10
2014,09,02,04,56,0.20
2014,09,02,04,57,0.70
2014,09,02,04,58,0.60
2014,09,02,04,59,0.90
2014,09,02,05,00,0.70
2014,09,02,05,01,0.90
2014,09,02,05,02,0.20
2014,09,02,05,03,0.10
2014,09,02,05,04,0.70
2014,09,02,05,05,1.10
2014,09,02,05,06,1.30
2014,09,02,05,07,0.70
2014,09,02,05,08,0.10
2014,09,02,05,09,0.00
2014,09,02,05,10,0.00
2014,09,02,05,11,0.00
2014,09,02,05,12,0.00
2014,09,02,05,13,0.00
2014,09,02,05,14,0.50
2014,09,02,05,15,1.60
2014,09,02,05,16,2.30
2014,09,02,05,17,1.70
2014,09,02,05,18,2.20
2014,09,02,05,19,2.50
2014,09,02,05,20,2.30
2014,09,02,05,21,1.90
2014,09,02,05,22,0.70
2014,09,02,05,23,0.90
2014,09,02,05,24,0.10
2014,09,02,05,25,0.00
2014,09,02,05,26,0.00
2014,09,02,05,27,0.20
2014,09,02,05,28,1.10
2014,09,02,05,29,1.00
2014,09,02,05,30,0.60
2014,09,02,05,31,1.70
2014,09,02,05,32,2.40
2014,09,02,05,33,2.40
2014,09,02,05,34,3.40
2014,09,02,05,35,3.50
2014,09,02,05,36,3.20
2014,09,02,05,37,2.60
2014,09,02,05,38,2.10
2014,09,02,05,39,1.60
2014,09,02,05,40,1.30
2014,09,02,05,41,0.30
2014,09,02,05,42,0.00
2014,09,02,05,43,0.50
2014,09,02,05,44,0.50
2014,09,02,05,45,0.10
2014,09,02,05,46,0.00
2014,09,02,05,47,0.20
2014,09,02,05,48,1.40
2014,09,02,05,49,1.70
2014,09,02,05,50,1.50
2014,09,02,05,51,1.20
2014,09,02,05,52,1.30
2014,09,02,05,53,2.10
2014,09,02,05,54,1.60
2014,09,02,05,55,1.40
2014,09,02,05,56,1.30
2014,09,02,05,57,2.00
2014,09,02,05,58,1.90
2014,09,02,05,59,1.20
2014,09,02,06,00,0.80
2014,09,02,06,01,1.40
2014,09,02,06,02,1.90
2014,09,02,06,03,2.00
2014,09,02,06,04,2.40
2014,09,02,06,05,2.00
2014,09,02,06,06,1.50
2014,09,02,06,07,0.10
2014,09,02,06,08,0.00
2014,09,02,06,09,0.00
2014,09,02,06,10,0.00
2014,09,02,06,11,0.00
2014,09,02,06,12,0.10
2014,09,02,06,13,1.00
2014,09,02,06,14,1.90
2014,09,02,06,15,2.40
2014,09,02,06,16,2.70
2014,09,02,06,17,3.10
2014,09,02,06,18,2.50
2014,09,02,06,19,2.90
2014,09,02,06,20,1.70
2014,09,02,06,21,1.50
2014,09,02,06,22,0.60
2014,09,02,06,23,0.30
2014,09,02,06,24,1.00
2014,09,02,06,25,1.30
2014,09,02,06,26,1.50
2014,09,02,06,27,1.90
2014,09,02,06,28,1.90
2014,09,02,06,29,1.90
2014,09,02,06,30,2.10
2014,09,02,06,31,2.10
2014,09,02,06,32,2.30
2014,09,02,06,33,2.60
2014,09,02,06,34,2.70
2014,09,02,06,35,2.70
2014,09,02,06,36,2.10
2014,09,02,06,37,2.40
2014,09,02,06,38,2.40
2014,09,02,06,39,1.70
2014,09,02,06,40,1.60
2014,09,02,06,41,1.10
2014,09,02,06,42,0.90
2014,09,02,06,43,0.60
2014,09,02,06,44,0.20
2014,09,02,06,45,0.20
2014,09,02,06,46,1.40
2014,09,02,06,47,2.00
2014,09,02,06,48,2.40
2014,09,02,06,49,2.50
2014,09,02,06,50,2.10
2014,09,02,06,51,1.50
2014,09,02,06,52,1.50
2014,09,02,06,53,1.00
2014,09,02,06,54,0.30
2014,09,02,06,55,1.00
2014,09,02,06,56,0.50
2014,09,02,06,57,0.70
2014,09,02,06,58,1.60
2014,09,02,06,59,1.70
2014,09,02,07,00,2.00
2014,09,02,07,01,1.40
2014,09,02,07,02,0.80
2014,09,02,07,03,2.20
2014,09,02,07,04,1.40
2014,09,02,07,05,1.90
2014,09,02,07,06,1.50
2014,09,02,07,07,1.00
2014,09,02,07,08,1.60
2014,09,02,07,09,1.70
2014,09,02,07,10,0.60
2014,09,02,07,11,0.70
2014,09,02,07,12,0.10
2014,09,02,07,13,0.10
2014,09,02,07,14,0.10
2014,09,02,07,15,1.30
2014,09,02,07,16,1.20
2014,09,02,07,17,0.30
2014,09,02,07,18,0.50
2014,09,02,07,19,0.60
2014,09,02,07,20,0.90
2014,09,02,07,21,0.30
2014,09,02,07,22,0.10
2014,09,02,07,23,0.00
2014,09,02,07,24,0.20
2014,09,02,07,25,0.00
2014,09,02,07,26,0.00
2014,09,02,07,27,0.00
2014,09,02,07,28,0.00
2014,09,02,07,29,0.20
2014,09,02,07,30,0.40
2014,09,02,07,31,0.10
2014,09,02,07,32,0.40
2014,09,02,07,33,0.70
2014,09,02,07,34,0.10
2014,09,02,07,35,1.20
2014,09,02,07,36,1.50
2014,09,02,07,37,0.10
2014,09,02,07,38,0.00
2014,09,02,07,39,0.40
2014,09,02,07,40,0.60
2014,09,02,07,41,0.00
2014,09,02,07,42,0.00
2014,09,02,07,43,0.00
2014,09,02,07,44,0.10
2014,09,02,07,45,0.50
2014,09,02,07,46,1.30
2014,09,02,07,47,1.00
2014,09,02,07,48,1.90
2014,09,02,07,49,1.90
2014,09,02,07,50,1.50
2014,09,02,07,51,0.90
2014,09,02,07,52,0.70
2014,09,02,07,53,1.30
2014,09,02,07,54,1.70
2014,09,02,07,55,2.10
2014,09,02,07,56,2.10
2014,09,02,07,57,1.20
2014,09,02,07,58,1.10
2014,09,02,07,59,2.60
2014,09,02,08,00,2.00
2014,09,02,08,01,1.20
2014,09,02,08,02,2.30
2014,09,02,08,03,2.70
2014,09,02,08,04,1.40
2014,09,02,08,05,2.40
2014,09,02,08,06,1.20
2014,09,02,08,07,2.10
2014,09,02,08,08,2.60
2014,09,02,08,09,1.80
2014,09,02,08,10,1.30
2014,09,02,08,11,1.40
2014,09,02,08,12,2.60
2014,09,02,08,13,2.30
2014,09,02,08,14,1.60
2014,09,02,08,15,1.10
2014,09,02,08,16,2.80
2014,09,02,08,17,1.60
2014,09,02,08,18,2.70
2014,09,02,08,19,1.50
2014,09,02,08,20,1.10
2014,09,02,08,21,0.60
2014,09,02,08,22,0.70
2014,09,02,08,23,0.00
2014,09,02,08,24,0.30
2014,09,02,08,25,0.10
2014,09,02,08,26,0.60
2014,09,02,08,27,0.00
2014,09,02,08,28,0.10
2014,09,02,08,29,0.30
2014,09,02,08,30,0.70
2014,09,02,08,31,1.50
2014,09,02,08,32,2.30
2014,09,02,08,33,1.60
2014,09,02,08,34,1.40
2014,09,02,08,35,2.30
2014,09,02,08,36,3.00
2014,09,02,08,37,1.10
2014,09,02,08,38,0.20
2014,09,02,08,39,0.10
2014,09,02,08,40,0.80
2014,09,02,08,41,0.50
2014,09,02,08,42,1.00
2014,09,02,08,43,0.50
2014,09,02,08,44,0.10
2014,09,02,08,45,0.10
2014,09,02,08,46,0.10
2014,09,02,08,47,0.60
2014,09,02,08,48,1.10
2014,09,02,08,49,1.70
2014,09,02,08,50,1.70
2014,09,02,08,51,1.70
2014,09,02,08,52,1.10
2014,09,02,08,53,1.10
2014,09,02,08,54,0.80
2014,09,02,08,55,2.10
2014,09,02,08,56,2.80
2014,09,02,08,57,2.10
2014,09,02,08,58,0.80
2014,09,02,08,59,0.30
2014,09,02,09,00,0.10
2014,09,02,09,01,0.20
2014,09,02,09,02,0.80
2014,09,02,09,03,1.90
2014,09,02,09,04,2.90
2014,09,02,09,05,2.40
2014,09,02,09,06,2.30
2014,09,02,09,07,0.80
2014,09,02,09,08,0.10
2014,09,02,09,09,0.00
2014,09,02,09,10,0.20
2014,09,02,09,11,0.70
2014,09,02,09,12,1.60
2014,09,02,09,13,1.40
2014,09,02,09,14,1.30
2014,09,02,09,15,0.70
2014,09,02,09,16,0.40
2014,09,02,09,17,0.00
2014,09,02,09,18,0.10
2014,09,02,09,19,0.10
2014,09,02,09,20,0.10
2014,09,02,09,21,0.40
2014,09,02,09,22,0.50
2014,09,02,09,23,0.10
2014,09,02,09,24,0.60
2014,09,02,09,25,2.40
2014,09,02,09,26,1.70
2014,09,02,09,27,3.60
2014,09,02,09,28,2.00
2014,09,02,09,29,1.50
2014,09,02,09,30,0.10
2014,09,02,09,31,0.00
2014,09,02,09,32,0.20
2014,09,02,09,33,0.50
2014,09,02,09,34,1.10
2014,09,02,09,35,0.60
2014,09,02,09,36,0.30
2014,09,02,09,37,0.10
2014,09,02,09,38,0.40
2014,09,02,09,39,0.90
2014,09,02,09,40,0.60
2014,09,02,09,41,0.00
2014,09,02,09,42,0.00
2014,09,02,09,43,0.80
2014,09,02,09,44,1.20
2014,09,02,09,45,1.10
2014,09,02,09,46,1.00
2014,09,02,09,47,1.80
2014,09,02,09,48,1.20
2014,09,02,09,49,0.40
2014,09,02,09,50,0.20
2014,09,02,09,51,0.10
2014,09,02,09,52,0.20
2014,09,02,09,53,0.10
2014,09,02,09,54,1.20
2014,09,02,09,55,0.80
2014,09,02,09,56,0.60
2014,09,02,09,57,0.10
2014,09,02,09,58,0.80
2014,09,02,09,59,0.80
2014,09,02,10,00,0.50
2014,09,02,10,01,1.70
2014,09,02,10,02,1.30
2014,09,02,10,03,1.50
2014,09,02,10,04,2.20
2014,09,02,10,05,1.30
2014,09,02,10,06,2.10
2014,09,02,10,07,2.00
2014,09,02,10,08,1.60
2014,09,02,10,09,0.20
2014,09,02,10,10,0.20
2014,09,02,10,11,0.60
2014,09,02,10,12,1.10
2014,09,02,10,13,1.40
2014,09,02,10,14,1.50
2014,09,02,10,15,0.90
2014,09,02,10,16,0.90
2014,09,02,10,17,0.40
2014,09,02,10,18,0.30
2014,09,02,10,19,0.40
2014,09,02,10,20,0.00
2014,09,02,10,21,0.30
2014,09,02,10,22,0.40
2014,09,02,10,23,0.00
2014,09,02,10,24,0.00
2014,09,02,10,25,0.20
2014,09,02,10,26,0.30
2014,09,02,10,27,0.20
2014,09,02,10,28,0.10
2014,09,02,10,29,0.20
2014,09,02,10,30,1.10
2014,09,02,10,31,1.90
2014,09,02,10,32,1.90
2014,09,02,10,33,1.90
2014,09,02,10,34,1.50
2014,09,02,10,35,1.90
2014,09,02,10,36,2.10
2014,09,02,10,37,1.70
2014,09,02,10,38,0.90
2014,09,02,10,39,1.70
2014,09,02,10,40,2.80
2014,09,02,10,41,1.30
2014,09,02,10,42,1.50
2014,09,02,10,43,1.80
2014,09,02,10,44,2.00
2014,09,02,10,45,1.70
2014,09,02,10,46,1.30
2014,09,02,10,47,2.10
2014,09,02,10,48,0.90
2014,09,02,10,49,1.30
2014,09,02,10,50,1.70
2014,09,02,10,51,1.00
2014,09,02,10,52,1.00
2014,09,02,10,53,0.30
2014,09,02,10,54,0.30
2014,09,02,10,55,0.40
2014,09,02,10,56,0.30
2014,09,02,10,57,0.20
2014,09,02,10,58,0.10
2014,09,02,10,59,0.10
2014,09,02,11,00,0.10
2014,09,02,11,01,0.50
2014,09,02,11,02,0.00
2014,09,02,11,03,0.00
2014,09,02,11,04,0.10
2014,09,02,11,05,0.20
2014,09,02,11,06,0.20
2014,09,02,11,07,0.60
2014,09,02,11,08,0.40
2014,09,02,11,09,0.30
2014,09,02,11,10,1.00
2014,09,02,11,11,1.60
2014,09,02,11,12,0.10
2014,09,02,11,13,1.00
2014,09,02,11,14,1.10
2014,09,02,11,15,1.70
2014,09,02,11,16,1.20
2014,09,02,11,17,0.20
2014,09,02,11,18,0.40
2014,09,02,11,19,0.20
2014,09,02,11,20,0.00
2014,09,02,11,21,0.00
2014,09,02,11,22,0.20
2014,09,02,11,23,0.10
2014,09,02,11,24,0.70
2014,09,02,11,25,1.70
2014,09,02,11,26,0.90
2014,09,02,11,27,0.80
2014,09,02,11,28,0.10
2014,09,02,11,29,0.70
2014,09,02,11,30,0.00
2014,09,02,11,31,0.40
2014,09,02,11,32,0.90
2014,09,02,11,33,0.40
2014,09,02,11,34,0.70
2014,09,02,11,35,0.60
2014,09,02,11,36,1.30
2014,09,02,11,37,1.90
2014,09,02,11,38,1.60
2014,09,02,11,39,1.00
2014,09,02,11,40,1.50
2014,09,02,11,41,1.30
2014,09,02,11,42,2.40
2014,09,02,11,43,2.00
2014,09,02,11,44,1.00
2014,09,02,11,45,2.00
2014,09,02,11,46,3.40
2014,09,02,11,47,2.30
2014,09,02,11,48,1.60
2014,09,02,11,49,1.50
2014,09,02,11,50,1.00
2014,09,02,11,51,2.70
2014,09,02,11,52,1.40
2014,09,02,11,53,2.50
2014,09,02,11,54,1.50
2014,09,02,11,55,0.80
2014,09,02,11,56,1.10
2014,09,02,11,57,2.10
2014,09,02,11,58,2.20
2014,09,02,11,59,0.90
2014,09,02,12,00,0.20
2014,09,02,12,01,0.10
2014,09,02,12,02,0.50
2014,09,02,12,03,0.70
2014,09,02,12,04,0.90
2014,09,02,12,05,1.10
2014,09,02,12,06,0.10
2014,09,02,12,07,0.10
2014,09,02,12,08,0.60
2014,09,02,12,09,1.00
2014,09,02,12,10,2.00
2014,09,02,12,11,2.00
2014,09,02,12,12,1.70
2014,09,02,12,13,1.10
2014,09,02,12,14,1.00
2014,09,02,12,15,1.30
2014,09,02,12,16,1.50
2014,09,02,12,17,1.90
2014,09,02,12,18,2.00
2014,09,02,12,19,2.00
2014,09,02,12,20,3.10
2014,09,02,12,21,3.00
2014,09,02,12,22,4.80
2014,09,02,12,23,2.60
2014,09,02,12,24,0.70
2014,09,02,12,25,1.90
2014,09,02,12,26,1.30
2014,09,02,12,27,1.70
2014,09,02,12,28,2.60
2014,09,02,12,29,1.60
2014,09,02,12,30,0.70
2014,09,02,12,31,1.30
2014,09,02,12,32,2.90
2014,09,02,12,33,3.80
2014,09,02,12,34,3.30
2014,09,02,12,35,1.30
2014,09,02,12,36,2.50
2014,09,02,12,37,2.00
2014,09,02,12,38,2.60
2014,09,02,12,39,5.10
2014,09,02,12,40,1.20
2014,09,02,12,41,3.70
2014,09,02,12,42,4.00
2014,09,02,12,43,4.00
2014,09,02,12,44,3.70
2014,09,02,12,45,2.20
2014,09,02,12,46,1.50
2014,09,02,12,47,2.10
2014,09,02,12,48,2.90
2014,09,02,12,49,0.80
2014,09,02,12,50,1.60
2014,09,02,12,51,2.90
2014,09,02,12,52,2.10
2014,09,02,12,53,3.80
2014,09,02,12,54,2.50
2014,09,02,12,55,1.60
2014,09,02,12,56,2.50
2014,09,02,12,57,2.20
2014,09,02,12,58,2.30
2014,09,02,12,59,2.20
2014,09,02,13,00,4.10
2014,09,02,13,01,2.40
2014,09,02,13,02,1.10
2014,09,02,13,03,1.30
2014,09,02,13,04,1.10
2014,09,02,13,05,2.60
2014,09,02,13,06,4.90
2014,09,02,13,07,4.50
2014,09,02,13,08,5.30
2014,09,02,13,09,11.20
2014,09,02,13,10,5.00
2014,09,02,13,11,2.40
2014,09,02,13,12,4.90
2014,09,02,13,13,2.60
2014,09,02,13,14,2.80
2014,09,02,13,15,2.60
2014,09,02,13,16,11.00
2014,09,02,13,17,5.10
2014,09,02,13,18,3.30
2014,09,02,13,19,8.40
2014,09,02,13,20,8.50
2014,09,02,13,21,6.40
2014,09,02,13,22,3.30
2014,09,02,13,23,6.00
2014,09,02,13,24,9.20
2014,09,02,13,25,3.20
2014,09,02,13,26,2.70
2014,09,02,13,27,4.30
2014,09,02,13,28,6.70
2014,09,02,13,29,4.80
2014,09,02,13,30,11.50
2014,09,02,13,31,16.50
2014,09,02,13,32,10.80
2014,09,02,13,33,9.50
2014,09,02,13,34,6.60
2014,09,02,13,35,8.20
2014,09,02,13,36,6.10
2014,09,02,13,37,4.90
2014,09,02,13,38,6.70
2014,09,02,13,39,8.60
2014,09,02,13,40,5.70
2014,09,02,13,41,2.70
2014,09,02,13,42,3.50
2014,09,02,13,43,4.60
2014,09,02,13,44,2.40
2014,09,02,13,45,1.30
2014,09,02,13,46,1.40
2014,09,02,13,47,2.40
2014,09,02,13,48,1.40
2014,09,02,13,49,1.90
2014,09,02,13,50,4.50
2014,09,02,13,51,2.70
2014,09,02,13,52,2.40
2014,09,02,13,53,3.60
2014,09,02,13,54,1.20
2014,09,02,13,55,3.10
2014,09,02,13,56,8.80
2014,09,02,13,57,9.70
2014,09,02,13,58,5.80
2014,09,02,13,59,6.90
2014,09,02,14,00,7.30
2014,09,02,14,01,7.80
2014,09,02,14,02,4.40
2014,09,02,14,03,4.60
2014,09,02,14,04,2.70
2014,09,02,14,05,2.80
2014,09,02,14,06,3.60
2014,09,02,14,07,4.60
2014,09,02,14,08,2.40
2014,09,02,14,09,2.70
2014,09,02,14,10,1.40
2014,09,02,14,11,4.10
2014,09,02,14,12,2.90
2014,09,02,14,13,1.90
2014,09,02,14,14,4.10
2014,09,02,14,15,6.70
2014,09,02,14,16,9.60
2014,09,02,14,17,6.60
2014,09,02,14,18,9.50
2014,09,02,14,19,7.20
2014,09,02,14,20,4.10
2014,09,02,14,21,6.90
2014,09,02,14,22,5.10
2014,09,02,14,23,11.50
2014,09,02,14,24,7.80
2014,09,02,14,25,11.00
2014,09,02,14,26,10.90
2014,09,02,14,27,9.10
2014,09,02,14,28,8.30
2014,09,02,14,29,11.30
2014,09,02,14,30,12.00
2014,09,02,14,31,11.40
2014,09,02,14,32,8.00
2014,09,02,14,33,6.60
2014,09,02,14,34,4.50
2014,09,02,14,35,11.00
2014,09,02,14,36,7.00
2014,09,02,14,37,5.30
2014,09,02,14,38,9.70
2014,09,02,14,39,15.40
2014,09,02,14,40,9.80
2014,09,02,14,41,7.10
2014,09,02,14,42,7.20
2014,09,02,14,43,12.20
2014,09,02,14,44,9.30
2014,09,02,14,45,6.40
2014,09,02,14,46,5.60
2014,09,02,14,47,3.00
2014,09,02,14,48,5.20
2014,09,02,14,49,3.60
2014,09,02,14,50,4.90
2014,09,02,14,51,4.10
2014,09,02,14,52,11.50
2014,09,02,14,53,10.80
2014,09,02,14,54,10.10
2014,09,02,14,55,9.70
2014,09,02,14,56,8.10
2014,09,02,14,57,11.80
2014,09,02,14,58,8.60
2014,09,02,14,59,8.50
2014,09,02,15,00,6.10
2014,09,02,15,01,4.60
2014,09,02,15,02,8.90
2014,09,02,15,03,12.30
2014,09,02,15,04,13.30
2014,09,02,15,05,15.80
2014,09,02,15,06,10.10
2014,09,02,15,07,11.60
2014,09,02,15,08,7.50
2014,09,02,15,09,8.00
2014,09,02,15,10,5.20
2014,09,02,15,11,11.60
2014,09,02,15,12,10.50
2014,09,02,15,13,6.00
2014,09,02,15,14,10.90
2014,09,02,15,15,17.10
2014,09,02,15,16,8.50
2014,09,02,15,17,8.20
2014,09,02,15,18,16.80
2014,09,02,15,19,16.20
2014,09,02,15,20,9.60
2014,09,02,15,21,13.40
2014,09,02,15,22,15.60
2014,09,02,15,23,13.10
2014,09,02,15,24,11.70
2014,09,02,15,25,13.00
2014,09,02,15,26,19.90
2014,09,02,15,27,7.90
2014,09,02,15,28,5.60
2014,09,02,15,29,12.50
2014,09,02,15,30,20.30
2014,09,02,15,31,9.20
2014,09,02,15,32,13.60
2014,09,02,15,33,14.70
2014,09,02,15,34,16.20
2014,09,02,15,35,16.50
2014,09,02,15,36,11.30
2014,09,02,15,37,17.80
2014,09,02,15,38,18.70
2014,09,02,15,39,15.10
2014,09,02,15,40,12.90
2014,09,02,15,41,12.00
2014,09,02,15,42,6.40
2014,09,02,15,43,8.20
2014,09,02,15,44,10.60
2014,09,02,15,45,12.10
2014,09,02,15,46,11.30
2014,09,02,15,47,7.50
2014,09,02,15,48,6.10
2014,09,02,15,49,3.80
2014,09,02,15,50,6.80
2014,09,02,15,51,1.60
2014,09,02,15,52,2.30
2014,09,02,15,53,5.50
2014,09,02,15,54,5.70
2014,09,02,15,55,6.90
2014,09,02,15,56,5.60
2014,09,02,15,57,6.30
2014,09,02,15,58,13.40
2014,09,02,15,59,13.10
2014,09,02,16,00,13.50
2014,09,02,16,01,15.40
2014,09,02,16,02,12.60
2014,09,02,16,03,12.90
2014,09,02,16,04,6.80
2014,09,02,16,05,7.00
2014,09,02,16,06,3.80
2014,09,02,16,07,6.30
2014,09,02,16,08,3.30
2014,09,02,16,09,5.00
2014,09,02,16,10,11.10
2014,09,02,16,11,13.30
2014,09,02,16,12,5.60
2014,09,02,16,13,5.00
2014,09,02,16,14,7.40
2014,09,02,16,15,4.70
2014,09,02,16,16,4.50
2014,09,02,16,17,11.80
2014,09,02,16,18,9.50
2014,09,02,16,19,4.80
2014,09,02,16,20,12.30
2014,09,02,16,21,11.90
2014,09,02,16,22,17.20
2014,09,02,16,23,12.50
2014,09,02,16,24,6.10
2014,09,02,16,25,15.70
2014,09,02,16,26,13.90
2014,09,02,16,27,12.90
2014,09,02,16,28,5.10
2014,09,02,16,29,4.20
2014,09,02,16,30,6.00
2014,09,02,16,31,6.00
2014,09,02,16,32,12.90
2014,09,02,16,33,10.60
2014,09,02,16,34,8.10
2014,09,02,16,35,12.50
2014,09,02,16,36,11.90
2014,09,02,16,37,19.20
2014,09,02,16,38,7.20
2014,09,02,16,39,8.80
2014,09,02,16,40,2.40
2014,09,02,16,41,3.00
2014,09,02,16,42,6.10
2014,09,02,16,43,11.80
2014,09,02,16,44,13.70
2014,09,02,16,45,5.40
2014,09,02,16,46,3.90
2014,09,02,16,47,6.60
2014,09,02,16,48,11.20
2014,09,02,16,49,9.90
2014,09,02,16,50,13.20
2014,09,02,16,51,11.60
2014,09,02,16,52,18.40
2014,09,02,16,53,12.30
2014,09,02,16,54,8.00
2014,09,02,16,55,5.80
2014,09,02,16,56,7.60
2014,09,02,16,57,13.50
2014,09,02,16,58,12.10
2014,09,02,16,59,8.60
2014,09,02,17,00,6.70
2014,09,02,17,01,12.10
2014,09,02,17,02,6.40
2014,09,02,17,03,7.80
2014,09,02,17,04,6.20
2014,09,02,17,05,5.70
2014,09,02,17,06,10.00
2014,09,02,17,07,15.20
2014,09,02,17,08,14.30
2014,09,02,17,09,3.00
2014,09,02,17,10,7.10
2014,09,02,17,11,9.70
2014,09,02,17,12,14.30
2014,09,02,17,13,10.90
2014,09,02,17,14,10.30
2014,09,02,17,15,14.80
2014,09,02,17,16,6.40
2014,09,02,17,17,5.90
2014,09,02,17,18,11.80
2014,09,02,17,19,15.60
2014,09,02,17,20,14.20
2014,09,02,17,21,18.80
2014,09,02,17,22,10.10
2014,09,02,17,23,5.00
2014,09,02,17,24,8.80
2014,09,02,17,25,8.50
2014,09,02,17,26,6.30
2014,09,02,17,27,10.30
2014,09,02,17,28,16.90
2014,09,02,17,29,12.60
2014,09,02,17,30,15.70
2014,09,02,17,31,9.20
2014,09,02,17,32,13.40
2014,09,02,17,33,13.80
2014,09,02,17,34,10.30
2014,09,02,17,35,14.60
2014,09,02,17,36,8.00
2014,09,02,17,37,7.20
2014,09,02,17,38,6.60
2014,09,02,17,39,12.90
2014,09,02,17,40,11.80
2014,09,02,17,41,7.10
2014,09,02,17,42,18.60
2014,09,02,17,43,19.70
2014,09,02,17,44,14.80
2014,09,02,17,45,8.20
2014,09,02,17,46,17.30
2014,09,02,17,47,12.60
2014,09,02,17,48,11.60
2014,09,02,17,49,13.20
2014,09,02,17,50,10.90
2014,09,02,17,51,9.40
2014,09,02,17,52,28.60
2014,09,02,17,53,14.40
2014,09,02,17,54,13.70
2014,09,02,17,55,18.40
2014,09,02,17,56,11.60
2014,09,02,17,57,5.30
2014,09,02,17,58,6.30
2014,09,02,17,59,12.40
2014,09,02,18,00,16.30
2014,09,02,18,01,9.70